EHI
0 0 0 0 0 0 0 0 0 0 0 0 0 0 0 0 0 0 0 0 0 0 0 0 0 0 0 0 0 0 0 0 0 0 0 0 0 0 0 0 0 0 0 0
0 0 0 0 0 0 0 0 0 0 0 0 0 0 0 0 0 0 0 0 0 0 0 0 0 0 0 0 0 0 0 0 0 0 0 0 0 0 0 0 0 0 0 0
0 0 0 0 0 0 0 0 0 0 0 0 0 0 0 0 0 0 0 0 0 0 0 0 0 0 0 0 0 0 0 0 0 0 0 0 0 0 0 0 0 0 0 0
0 0 0 0 0 0 0 0 0 0 0 0 0 0 0 0 0 0 0 0 0 0 0 0 0 0 0 0 0 0 0 0 0 0 0 0 0 0 0 0 0 0 0 0
0 0 0 0 0 0 0 0 0 0 0 0 0 0 0 0 0 0 0 0 0 0 0 0 0 0 0 0 0 0 0 0 0 0 0 0 0 0 0 0 0 0 0 0
0 0 0 0 0 0 0 0 0 0 0 0 0 0 0 0 0 0 0 0 0 0 0 0 0 0 0 0 0 0 0 0 0 0 0 0 0 0 0 0 0 0 0 0
0 0 0 0 0 0 0 0 0 0 0 0 0 0 0 0 0 0 0 0 0 0 0 0 0 0 0 0 0 0 0 0 0 0 0 0 0 0 0 0 0 0 0 0
0 0 0 0 0 0 0 0 0 0 0 0 0 0 0 0 0 0 0 0 0 0 0 0 0 0 0 0 0 0 0 0 0 0 0 0 0 0 0 0 0 0 0 0
0 0 0 0 0 0 0 0 0 0 0 0 0 0 0 0 0 0 0 0 0 0 0 0 0 0 0 0 0 0 0 0 0 0 0 0 1 0 0 0 0 0 0 0
0 0 0 0 0 0 0 0 0 0 0 0 0 0 0 0 0 0 0 0 0 0 0 0 0 0 0 0 0 0 0 0 0 0 0 0 0 0 0 0 0 0 0 0
0 0 0 0 0 0 0 0 0 0 0 0 0 0 0 0 0 0 0 0 0 0 0 0 0 0 0 0 0 0 0 0 0 0 0 0 0 0 0 0 0 0 0 0
0 0 0 0 0 0 0 0 0 0 0 0 0 0 0 0 0 0 0 0 0 0 0 0 0 0 0 0 0 0 0 0 0 0 0 0 0 0 0 0 0 0 0 0
0 0 0 0 0 0 0 0 0 0 0 0 0 0 0 0 0 0 0 0 0 0 0 0 0 0 0 0 0 0 0 0 0 0 0 0 0 0 0 0 0 0 0 0
0 0 0 0 0 0 0 0 0 0 0 0 0 0 0 0 0 0 0 0 0 0 0 0 0 0 0 0 0 0 0 0 0 0 0 0 0 0 0 0 0 0 0 0
0 0 0 0 0 0 0 0 0 0 0 0 0 0 0 0 0 0 0 0 0 0 0 0 0 0 0 0 0 0 0 0 0 0 0 0 0 0 0 0 0 0 0 0
0 0 0 0 0 0 0 0 0 0 0 0 0 0 0 0 0 0 0 0 0 0 0 0 0 0 0 0 0 0 0 0 0 0 0 0 0 0 0 0 0 0 0 0
0 0 0 0 0 0 0 0 0 0 0 0 0 0 0 0 0 0 0 0 0 0 0 0 0 0 0 0 0 0 0 0 0 0 0 0 0 0 0 0 0 0 0 0
0 0 0 0 0 0 0 0 0 0 0 0 0 0 0 0 0 0 0 0 0 0 0 0 0 0 0 0 0 0 0 0 0 0 0 0 0 0 0 0 0 0 0 0
0 0 0 0 0 0 0 0 0 0 0 0 0 0 0 0 0 0 0 0 0 0 0 0 0 0 0 0 0 0 0 0 0 0 0 0 0 0 0 0 0 0 0 0
0 0 0 0 0 0 0 0 0 0 0 0 0 0 0 0 0 0 0 0 0 0 0 0 0 0 0 0 0 0 0 0 0 0 0 0 0 0 0 0 0 0 0 0
0 0 0 0 0 0 0 0 0 0 0 0 0 0 0 0 0 0 0 0 0 0 0 0 0 0 0 0 0 0 0 0 0 0 0 0 0 0 0 0 0 0 0 0
0 0 0 0 0 0 0 0 0 0 0 0 0 0 0 0 0 0 0 0 0 0 0 0 0 0 0 0 0 0 0 0 0 0 0 0 0 0 0 0 0 0 0 0
0 0 0 0 0 0 0 0 0 0 0 0 0 0 0 0 0 0 0 0 0 0 0 0 0 0 0 0 0 0 0 0 0 0 0 0 0 0 0 0 0 0 0 0
0 0 0 0 0 0 0 0 0 0 0 0 0 0 0 0 0 0 0 0 0 0 0 0 0 0 0 0 0 0 0 0 0 0 0 0 0 0 0 0 0 0 0 0
0 0 0 0 0 0 0 0 0 0 0 0 0 0 0 0 0 0 0 0 0 0 0 0 0 0 0 0 0 0 0 0 0 0 0 0 0 0 0 0 0 0 0 0
0 0 0 0 0 0 0 0 0 0 0 0 0 0 0 0 0 0 0 0 0 0 0 0 0 0 0 0 0 0 0 0 0 0 0 0 0 0 0 0 0 0 0 0
0 0 0 0 0 0 0 0 0 0 0 0 0 0 0 0 0 0 0 0 0 0 0 0 0 0 0 0 0 0 0 0 0 0 0 0 0 0 0 0 0 0 0 0
Wind_Speed
16 17 16 17 18 15 14 15 14 16 18 18 16 15 14 13 13 12 11 10 9 9 8 8 7 6 6 6 6 7 9 10 11 12 12 12 13 14 15 15 15 15 14 15
14 13 14 18 19 17 16 16 18 20 20 15 15 14 13 12 12 12 11 11 10 10 9 9 8 7 6 6 6 6 8 9 10 10 11 12 12 13 13 14 14 14 14 14
10 10 13 13 10 11 11 11 12 15 15 14 14 14 13 12 11 11 12 11 11 10 9 9 8 8 7 6 5 6 7 7 8 9 10 11 11 12 13 14 13 13 14 14
8 9 10 5 3 6 10 12 11 12 13 13 14 14 13 10 11 12 12 11 11 10 9 9 8 8 7 6 5 5 6 6 7 8 9 10 11 12 12 12 12 12 13 13
5 8 13 10 5 4 8 11 8 10 12 12 13 13 10 7 10 12 11 11 10 10 10 9 8 7 6 5 4 4 5 6 6 7 8 9 11 11 11 11 11 11 11 12
7 9 10 5 2 4 6 8 3 6 9 10 11 10 9 11 12 12 11 10 10 10 9 8 7 6 6 5 4 5 5 5 6 7 8 9 10 10 9 9 10 10 10 11
12 11 11 6 1 2 5 6 5 7 8 9 9 10 13 14 13 12 11 11 11 9 8 8 7 6 6 5 5 5 4 4 5 6 7 8 8 8 9 8 9 9 9 9
7 10 10 1 2 5 7 7 8 10 10 11 12 13 14 14 13 13 12 12 11 9 9 8 7 6 6 6 5 4 3 4 5 5 5 6 7 8 9 9 10 10 9 8
9 10 8 4 7 8 8 10 11 12 12 12 14 14 15 14 14 13 13 12 11 11 10 8 6 5 6 6 5 4 3 3 3 4 4 6 7 8 8 9 9 8 8 8
12 14 13 12 11 10 9 11 13 13 13 13 15 15 15 14 13 13 13 12 11 10 9 8 7 6 6 5 4 3 3 3 3 4 4 5 5 6 7 8 9 9 9 9
15 16 14 13 12 11 12 12 14 14 14 14 14 15 15 13 13 12 12 12 11 10 9 9 7 6 5 4 3 3 3 3 3 4 5 5 4 4 6 6 8 10 10 10
13 12 11 12 12 12 13 13 13 14 14 13 13 14 14 13 12 12 12 11 10 10 9 9 7 6 5 4 3 3 3 3 3 3 4 5 5 3 3 4 7 9 10 10
15 14 14 15 14 12 12 13 12 12 13 13 12 12 13 13 12 12 12 11 11 10 9 8 7 6 5 4 3 4 4 3 3 3 4 5 6 6 5 5 7 9 11 13
13 13 14 12 12 11 11 11 11 11 11 11 11 11 11 12 12 12 11 11 11 10 9 7 6 6 4 3 3 4 4 4 4 4 4 5 5 5 6 7 7 5 7 13
11 11 12 11 11 10 9 9 10 10 10 10 10 10 10 11 12 12 11 10 10 9 8 7 6 6 4 3 3 4 4 3 3 3 4 4 5 5 5 6 7 7 6 8
8 8 9 10 10 9 9 9 10 11 11 11 11 11 11 11 11 11 10 9 9 9 8 7 6 6 4 3 3 3 3 4 4 4 4 5 5 6 6 6 7 8 8 8
8 8 7 8 9 9 9 9 10 11 11 11 11 12 11 11 11 11 10 9 9 9 8 7 7 5 4 4 3 3 3 4 5 5 5 5 6 6 6 7 7 7 7 9
8 8 8 8 8 9 10 10 10 10 11 11 11 11 11 11 11 12 11 10 9 9 8 7 6 5 4 4 3 3 3 4 4 5 5 5 6 6 6 7 8 9 8 9
5 6 6 7 7 8 9 10 10 10 11 10 11 12 12 12 11 11 11 10 9 9 8 6 6 5 4 4 3 3 3 4 4 4 4 7 6 6 7 7 8 8 8 8
4 4 5 7 7 8 9 10 10 10 10 10 11 12 12 12 11 10 10 10 8 7 8 7 6 5 4 3 3 3 4 5 5 5 5 6 6 6 7 7 8 8 8 8
5 6 7 7 8 9 9 10 10 10 11 10 11 11 12 12 11 10 9 9 8 7 7 8 5 4 3 3 3 3 3 4 5 5 5 6 6 7 7 7 8 8 8 8
6 6 7 8 9 10 9 9 9 11 11 11 11 11 11 12 11 10 10 8 8 9 7 5 5 4 4 4 3 3 3 4 5 5 6 6 6 7 7 7 7 8 8 8
6 7 8 9 10 10 11 10 10 10 11 11 11 11 11 10 9 8 9 7 6 9 7 6 6 7 7 4 3 4 4 5 5 5 6 6 6 6 7 8 7 7 8 8
7 8 8 9 9 10 11 10 10 9 10 11 10 10 10 9 8 7 8 10 11 11 7 7 9 8 7 3 3 4 4 4 5 5 6 6 6 6 6 7 7 7 7 9
7 8 8 9 9 8 9 10 10 9 9 8 9 10 8 7 8 8 8 9 10 10 7 7 8 8 5 3 3 4 4 4 5 5 6 6 6 6 6 7 7 7 8 8
7 7 7 8 8 7 7 7 7 7 7 8 8 7 7 6 8 8 7 8 9 9 7 5 5 5 3 3 3 3 4 4 5 5 5 6 7 7 7 7 9 8 8 8
7 7 6 7 6 6 6 7 7 8 7 8 9 8 8 7 7 7 8 7 6 5 5 4 4 4 3 3 3 3 4 4 4 5 5 5 6 6 7 9 7 7 8 9
Wind_Direction
268 276 278 274 276 272 256 251 259 273 281 290 300 307 310 310 309 311 316 319 323 320 318 316 308 296 283 275 262 243 224 220 215 210 204 201 201 198 193 190 188 186 185 186
275 271 275 273 269 266 262 256 257 269 277 287 297 302 305 308 309 309 311 312 315 316 315 312 308 298 291 283 269 249 229 222 214 206 201 198 197 194 190 188 186 184 185 185
279 295 290 267 262 256 255 252 257 265 276 296 300 302 306 308 310 309 309 309 309 308 307 308 306 298 287 279 272 251 235 222 209 204 202 194 191 191 188 186 184 184 184 183
283 295 262 269 309 279 272 268 262 270 285 297 300 303 300 300 307 308 307 306 306 305 306 305 302 297 288 280 267 245 232 220 208 202 200 192 189 189 188 184 182 182 183 183
262 272 277 280 277 271 273 276 273 283 295 302 306 298 288 305 313 308 306 303 302 301 300 299 299 298 289 283 274 252 234 218 209 205 199 192 190 187 185 181 180 180 181 180
248 263 269 287 356 317 283 270 299 305 305 311 316 303 310 326 314 309 306 305 304 300 297 295 299 298 287 282 274 258 244 225 212 206 200 195 192 187 181 178 176 172 174 178
244 254 266 280 298 291 267 303 329 306 304 305 301 296 306 311 311 310 308 306 306 300 294 293 295 293 286 282 277 267 251 232 217 206 200 195 190 183 175 171 167 166 165 170
228 241 256 192 197 241 279 308 299 300 301 299 298 300 303 305 306 308 309 308 309 302 294 292 291 287 283 283 287 279 249 232 217 206 194 185 180 177 171 166 165 164 159 159
229 248 285 262 251 268 283 287 294 296 298 298 298 300 302 302 304 303 303 306 307 302 296 291 288 281 280 286 290 282 255 231 214 203 189 178 175 173 170 169 166 164 162 160
257 261 270 274 274 277 282 285 290 293 295 295 295 298 299 299 301 302 302 305 307 305 296 293 291 283 278 284 285 265 248 226 206 192 182 179 174 174 173 174 170 166 164 161
257 269 278 268 265 275 285 288 291 293 291 290 291 293 296 296 299 300 300 302 302 299 294 291 290 285 282 281 279 261 240 220 207 194 181 174 173 180 182 186 179 172 170 165
255 264 266 279 286 287 286 287 292 294 293 292 291 292 294 294 296 297 298 300 300 299 296 294 290 285 282 275 267 252 233 216 206 194 182 166 154 133 123 157 155 163 165 162
260 274 275 281 284 285 285 289 291 290 291 294 295 294 294 293 297 297 296 298 299 298 296 293 289 282 275 269 261 244 231 223 209 196 187 173 160 155 143 111 119 138 149 151
256 265 269 271 278 286 288 290 291 291 292 294 296 297 296 295 296 296 296 299 299 297 295 292 288 284 278 271 258 237 224 216 213 204 191 178 167 163 159 156 150 137 140 147
251 250 260 275 281 285 289 291 293 294 299 300 300 299 299 298 298 298 299 301 298 295 295 295 290 289 288 274 259 236 218 206 203 202 188 172 163 159 154 154 151 144 138 141
258 259 261 266 274 285 291 292 292 295 300 302 303 303 303 300 298 298 299 302 298 295 296 295 287 288 287 272 257 237 214 196 202 192 178 169 163 160 157 156 155 154 155 153
255 260 263 269 278 285 289 290 290 292 296 297 299 301 301 300 299 299 301 302 295 291 290 288 283 287 281 262 244 222 201 187 184 182 180 173 167 165 162 159 160 157 156 159
250 257 264 272 279 286 289 290 290 291 292 295 297 297 296 295 295 298 301 302 298 294 290 286 282 284 274 261 244 220 202 195 190 183 176 174 170 166 162 160 159 156 152 155
251 258 269 276 280 282 286 291 293 293 294 295 295 294 292 290 290 293 296 296 292 292 295 298 294 282 273 262 252 221 200 189 186 182 174 169 169 166 163 161 160 157 157 156
272 278 283 287 289 288 288 291 292 291 291 293 293 291 291 292 292 292 292 287 280 281 288 293 294 284 272 259 251 217 198 188 183 179 175 174 170 166 164 161 159 159 159 158
285 290 291 292 292 290 288 290 289 289 291 291 288 288 290 292 292 290 288 286 288 291 291 289 284 275 269 266 263 224 202 190 184 180 177 174 169 165 163 162 162 159 157 155
285 287 289 291 292 291 292 292 288 288 290 290 288 287 288 289 290 287 278 276 286 292 290 282 280 272 270 273 255 229 209 196 186 178 177 173 170 168 166 163 161 158 156 156
285 287 290 291 291 292 293 291 289 288 287 287 287 286 284 284 286 284 286 286 288 290 289 279 275 275 275 267 241 223 209 194 183 177 174 171 169 167 163 160 158 157 157 156
286 288 290 292 292 290 290 292 291 287 285 285 283 283 283 284 282 275 275 284 286 286 280 275 276 273 272 258 235 216 203 189 180 174 170 166 165 164 161 158 156 157 156 156
285 287 288 289 288 285 287 292 292 289 287 284 284 283 277 271 274 282 283 281 281 281 277 273 272 269 261 245 224 208 199 192 181 174 171 167 165 164 163 160 159 159 159 159
286 285 283 281 282 285 287 287 287 289 290 290 290 288 284 280 277 277 277 277 276 276 274 270 264 258 247 231 213 200 191 183 179 178 172 166 164 164 162 161 159 160 158 155
285 284 285 285 284 282 283 282 283 286 287 286 288 290 289 287 284 282 280 278 277 275 271 265 257 246 236 220 201 194 191 186 178 171 169 168 166 165 163 159 158 154 152 152